VERCVEPT

Guest
Details From VERC - BIRSA MUNDA
To VEPT - PATNA
Flight Number -
Tags generated
Created
Modified
Stats Distance 140 nm / 259 km
Max Altitude 10,000 ft / 3,048 m
Waypoints 4
Social Downloads 0
Likes 0
Share VATSIM

Download

Looking for another format? Having issues loading an existing format? Contact us
Advertisement - Login to hide

Notes

Basic altitude profile: - Ascent Rate: 2500ft/min - Ascent Speed: 250kts - Cruise Altitude: 35000ft - Cruise Speed: 420kts - Descent Rate: 1500ft/min - Descent Speed: 250kts Options: - Use NATs: yes - Use PACOTS: yes - Use low airways: yes - Use high airways: yes

Route

VERC GGC W106 PPT VEPT

ID Type Via Altitude Latitude Longitude Leg Dist Tot Dist Heading (true) Name
O VERC APT - 0 ft / 0 m 23.31467˚ 85.32168˚ - 0 nm - BIRSA MUNDA
GGC VOR - 10,000 ft / 3,048 m 24.74189˚ 84.94386˚ 88 nm 88 nm 346° / 346° GAYA VOR-DME
PPT VOR W106 (AWY-LO) 7,500 ft / 2,286 m 25.59042˚ 85.08992˚ 51 nm 139 nm 9° / 9° PATNA VOR-DME
O VEPT APT - 0 ft / 0 m 25.59132˚ 85.08799˚ 0 nm 139 nm 297° / 297° PATNA

Altitude Profile

Advertisement - Login to hide

VERC

Details ICAO VERC (IXR)
Name BIRSA MUNDA
Region India
Timezone Asia/Kolkata (UTC+5.5)
Stats Elevation 2,148 ft / 655 m (AMSL)
Location 23.314668° 85.321675°
Runways 1
Magnetic Variation 0.007° W

METAR

VERC 251900Z 21005KT 3000 TS SCT018 FEW030CB OVC080 24/20 Q1007 NOSIG

Decode

TAF

Not found

Departure Runways

ID Width Length Bearing (true) Bearing (mag) Surface Threshold Offset Overrun Length
13 148 ft / 45 m 8,863 ft / 2,701 m 130.35° 130.36° Asphalt 948 ft / 289 m 0 ft / 0 m
31 148 ft / 45 m 8,863 ft / 2,701 m 310.35° 310.36° Asphalt 0 ft / 0 m 0 ft / 0 m

VEPT

Details ICAO VEPT (PAT)
Name PATNA
Region India
Timezone Asia/Kolkata (UTC+5.5)
Stats Elevation 170 ft / 52 m (AMSL)
Location 25.591317° 85.087990°
Runways 1
Magnetic Variation 0.271° E

METAR

VEPT 251800Z 09004KT 3500 HZ SCT100 33/27 Q1000 NOSIG

Decode

TAF

TAF VEPT 251700Z 2518/2624 14008KT 2800 HZ FEW020 SCT100 BECMG 2603/2605 4000 HZ TEMPO 2610/2614 1500 TSRA SCT015 FEW025CB BKN090 BECMG 2620/2622 2500 HZ

Decode

Destination Runways

ID Width Length Bearing (true) Bearing (mag) Surface Threshold Offset Overrun Length
07 148 ft / 45 m 6,411 ft / 1,954 m 68.24° 67.97° Asphalt 920 ft / 280 m 975 ft / 297 m
25 148 ft / 45 m 6,411 ft / 1,954 m 248.25° 247.98° Asphalt 440 ft / 134 m 310 ft / 94 m

Approach Navaids

Runway Type Ident Frequency Range Bearing (true) Bearing (mag) Slope Elevation
25 Localiser PAT 110.30 MHz 18 nm / 33 km 246.96° 246.69° - 170 ft / 52 m (AMSL)
25 Glidescope PAT 110.30 MHz 10 nm / 19 km 248.25° 247.98° 3.00° 170 ft / 52 m (AMSL)
25 DME PAT 110.30 MHz 18 nm / 33 km - - - 170 ft / 52 m (AMSL)